Weather in Velyka Novosilka

Ukraine / Donetsk Region     47˚50′26″N   36˚50′18″E
temp.,
°C
wind,
m/s
gust,
m/s
humid.,
%
clouds,
%
prec.,
mm/h
press.,
hPa
HPBL,
m
28 november, sat
sat2823:00+6˚ssw5118572 0.0 1022357
02:00+7˚ssw4108878 0.0 1022433
05:00+7˚s598692 0.1 1021325
08:00+7˚s589095 0.1 1022354
11:00+8˚sse6880100 0.0 1022687
14:00+8˚sse6873100 0.0 1021839
17:00+6˚se51167100 0.0 1021373
20:00+7˚se61173100 0.0 1021448
29 november, sun
sun2923:00+6˚se61071100 0.0 1021339
02:00+5˚se5970100 0.0 1021290
05:00+2˚se498033 0.0 1021224
08:00+3˚se598218 0.0 1022263
11:00+6˚se5874100 0.0 1022310
14:00+7˚se5874100 0.0 1022430
17:00+5˚ese51087100 0.0 1023322
20:00+5˚se5119098 0.0 1023328
30 november, mon
mon3023:00+4˚se51192100 0.0 1023303
02:00+3˚se51094100 0.0 1024280
05:00+4˚ese61094100 0.0 1023374
08:00+5˚ese71191100 0.0 1024488
11:00+6˚ese71079100 0.0 1024571
14:00+7˚ese61071100 0.0 1023667
17:00+5˚ese5117796 0.0 1023647
20:00+6˚ese6117598 0.0 1023757
1 december, tue
tue123:00+6˚ese61072100 0.0 1023835
02:00+5˚e5976100 0.0 1023625
05:00+3˚e71073100 0.0 1023621
08:00+2˚e71073100 0.0 1024623
11:00+3˚e6971100 0.0 1024748
14:00+3˚e6970100 0.0 1024884
17:00+3˚e61174100 0.0 1024852
20:00+3˚e61176100 0.0 1024750
2 december, wed
wed223:00+2˚e71177100 0.0 1025645
02:00+2˚e71279100 0.1 1025589
05:00+2˚ese61178100 0.0 1025630
08:00+2˚ese71179100 0.0 1026657
11:00+3˚ese71073100 0.0 1027698
14:00+3˚ese71072100 0.0 1026690
17:00+2˚ese71075100 0.0 1027719
20:00+2˚ese61074100 0.0 1028739